{"data":{"norad_id":62764,"epoch":"2026-05-25T04:54:44.314848Z","epoch_age_seconds":53277,"freshness":"FRESH","line1":"1 62764U 25015G   26145.20467957  .00025061  00000+0  81623-3 0  9992","line2":"2 62764  53.1596 326.5037 0001441  69.8000 290.3156 15.31715513 76208","mean_motion":15.31715513,"eccentricity":0.0001441,"inclination_deg":53.1596,"raan_deg":326.5037,"arg_perigee_deg":69.8,"mean_anomaly_deg":290.3156,"bstar":0.00081623,"rev_number":7620,"period_min":94.0122358087,"perigee_km":469.70683565878,"apogee_km":471.68066868156,"semimajor_km":6848.8307521702,"source":"CELESTRAK","updated_at":"2026-05-25T13:38:19.744258Z"}}